Key West, FL

5:28 PM EDT on July 25, 2017 (GMT -0400)
Key West International

Weather History for KEYW - May, 2014

Change the Weather History Date:

Monday, May 19, 2014

  Actual Average Record
Temperature  
Mean Temperature 80 °F 81 °F  
Max Temperature 84 °F 85 °F 92 °F (1881)
Min Temperature 75 °F 76 °F 66 °F (2006)
Degree Days  
Heating Degree Days 0 0  
Month to date heating degree days 0 0  
Since 1 July heating degree days 22 73  
Cooling Degree Days 15 16  
Month to date cooling degree days 315 278  
Year to date cooling degree days 1409 1232  
Growing Degree Days 30 (Base 50)    
Moisture  
Dew Point 66 °F    
Average Humidity 65    
Maximum Humidity 74    
Minimum Humidity 55    
Precipitation  
Precipitation 0.00 in 0.10 in 5.83 in (1904)
Month to date precipitation 0.91 1.45  
Year to date precipitation 12.85 9.08  
Snow  
Snow 0.00 in - - ()
Month to date snowfall 0.0  
Since 1 July snowfall 0.0  
Snow Depth 0.00 in    
Sea Level Pressure  
Sea Level Pressure 30.08 in    
Wind  
Wind Speed 13 mph (ENE)    
Max Wind Speed 21 mph    
Max Gust Speed 27 mph    
Visibility 10 miles    
Events      
T = Trace of Precipitation, MM = Missing Value Source: NWS Daily Summary

Daily Weather History Graph

Daily Weather History Graph

Search for Another Location

Airport or City:

Trip Planner

Search our weather history database for the weather conditions in past years. The results will help you decide how hot, cold, wet, or windy it might be!

Date:

Astronomy

May. 19, 2014 Rise Set
Actual Time 6:41 AM EDT 8:05 PM EDT
Civil Twilight 6:16 AM EDT 8:30 PM EDT
Nautical Twilight 5:47 AM EDT 9:00 PM EDT
Astronomical Twilight 5:16 AM EDT 9:30 PM EDT
Moon No Moon Rise 11:28 AM EDT (5/19)
Length of Visible Light 14h 13m
Length of Day
13h 23m
Waning Gibbous, 71% of the Moon is Illuminated
May 19
Waning Gibbous
May 21
Last Quarter
May 28
New
Jun 5
First Quarter
Jun 13
Full

Hourly Weather History & Observations

Time (EDT) Temp. Heat Index Dew Point Humidity Pressure Visibility Wind Dir Wind Speed Gust Speed Precip Events Conditions
12:53 AM 77.0 °F - 64.9 °F 66% 30.07 in 10.0 mi ENE 6.9 mph - N/A   Clear
1:53 AM 77.0 °F - 64.9 °F 66% 30.07 in 10.0 mi NE 8.1 mph - N/A   Clear
2:53 AM 75.9 °F - 66.9 °F 74% 30.06 in 10.0 mi NE 9.2 mph - N/A   Clear
3:53 AM 75.9 °F - 66.9 °F 74% 30.05 in 10.0 mi NE 9.2 mph - N/A   Mostly Cloudy
4:53 AM 75.9 °F - 66.9 °F 74% 30.06 in 10.0 mi NE 8.1 mph - N/A   Clear
5:53 AM 75.0 °F - 66.0 °F 73% 30.06 in 10.0 mi NE 9.2 mph 19.6 mph N/A   Clear
6:53 AM 75.0 °F - 64.9 °F 71% 30.07 in 10.0 mi NE 8.1 mph - N/A   Clear
7:53 AM 77.0 °F - 64.9 °F 66% 30.08 in 10.0 mi NE 10.4 mph 19.6 mph N/A   Clear
10:53 AM 82.0 °F 83.8 °F 64.9 °F 56% 30.11 in 10.0 mi ENE 10.4 mph - N/A   Clear
11:53 AM 82.9 °F 85.0 °F 66.0 °F 56% 30.10 in 10.0 mi East 13.8 mph 21.9 mph N/A   Clear
12:53 PM 82.9 °F 85.0 °F 66.0 °F 56% 30.09 in 10.0 mi East 19.6 mph 25.3 mph N/A   Clear
1:53 PM 82.4 °F 84.6 °F 66.2 °F 58% 30.09 in 10.0 mi East 19.6 mph - N/A   Scattered Clouds
2:53 PM 82.9 °F 85.4 °F 66.9 °F 58% 30.08 in 10.0 mi East 16.1 mph - N/A   Mostly Cloudy
3:53 PM 82.9 °F 85.0 °F 66.0 °F 56% 30.06 in 10.0 mi East 18.4 mph 24.2 mph N/A   Clear
4:53 PM 82.9 °F 85.4 °F 66.9 °F 58% 30.06 in 10.0 mi East 16.1 mph 25.3 mph N/A   Clear
5:53 PM 82.0 °F 83.8 °F 64.9 °F 56% 30.05 in 10.0 mi East 15.0 mph 24.2 mph N/A   Clear
6:53 PM 80.1 °F 81.9 °F 64.9 °F 60% 30.06 in 10.0 mi East 15.0 mph 25.3 mph N/A   Clear
7:53 PM 79.0 °F - 64.9 °F 62% 30.06 in 10.0 mi East 16.1 mph 23.0 mph N/A   Clear
8:53 PM 78.1 °F - 66.0 °F 66% 30.07 in 10.0 mi ENE 12.7 mph 19.6 mph N/A   Clear
9:53 PM 78.1 °F - 64.9 °F 64% 30.09 in 10.0 mi ENE 11.5 mph - N/A   Clear
10:53 PM 78.1 °F - 66.0 °F 66% 30.10 in 10.0 mi ENE 11.5 mph 20.7 mph N/A   Clear
11:53 PM 78.1 °F - 66.9 °F 68% 30.11 in 10.0 mi ENE 10.4 mph 20.7 mph N/A   Clear